{"data":{"norad_id":68430,"intl_designator":"2026-067Q","name":"VEGAFLY-1","alt_names":[],"object_type":"PAYLOAD","status":"ACTIVE","operator":null,"country":"VTNM","launch_date":"2026-03-30","launch_site_code":"AFWTR","launch_vehicle":null,"mission":null,"orbit_class":"UNKNOWN","rcs_meters":null,"size_class":null,"mass_kg":null,"dimensions":null,"purposes":[],"wikipedia_slug":null,"has_3d_model":false,"image_url":null,"decayed_at":null,"tle_current":{"epoch":"2026-09-19T16:05:02.610240Z","epoch_age_seconds":140677,"freshness":"FRESH","line1":"1 68430U 26067Q   26262.67016910  .00004651  00000+0  21773-3 0  9998","line2":"2 68430  97.4590 219.9704 0002225  68.7962 291.3511 15.20223844 26290","mean_motion":15.20223844,"eccentricity":0.0002225,"inclination_deg":97.459,"raan_deg":219.9704,"arg_perigee_deg":68.7962,"mean_anomaly_deg":291.3511,"bstar":0.00021773,"rev_number":2629,"period_min":94.722892663694,"perigee_km":503.63331241278,"apogee_km":506.69638173472,"semimajor_km":6883.3018470737,"source":"CELESTRAK","updated_at":"2026-09-20T09:00:24.201805Z"}}}